Location: *
(45.1961°N, 1.9694°E)
Time: 18:01:46
(UTC+00:00)

MTI - Pass Details

Date: 25 August 2019
Orbit: 399 x 412 km, 97.5° (Epoch: 16 October)

Event Time Altitude Azimuth Distance (km) Brightness Sun altitude
Rises 20:21:59 0° 18° (NNE) 2,358 7.8 -16.6°
Reaches altitude 10° 20:24:03 10° 25° (NNE) 1,488 6.6 -16.9°
Enters shadow 20:26:46 42° 79° (ENE) 599 4.2 -17.3°
